User: anonymous   Login
Location: Lynch Observatory
(39.9540°N, 75.1861°W)
Time: 14:39:35
(UTC-04:00)
Language:

DIWATA 2B (PO-101) - Orbit

View from above orbital plane
View from above orbital plane
View from above satellite
View from above satellite

Ground track
Ground track

The orbit data is extracted from the following two-line orbital elements,

1 43678U 18084H   24113.19218569  .00005714  00000-0  52827-3 0  9995
2 43678  98.0648 269.5758 0008431 207.9997 152.0770 14.94959488298558
Epoch (UTC): 22 April 2024 04:36:44
Eccentricity: 0.0008431
inclination: 98.0648°
perigee height: 576 km
apogee height: 588 km
right ascension of ascending node: 269.5758°
argument of perigee: 207.9997°
revolutions per day: 14.94959488
mean anomaly at epoch: 152.0770°
orbit number at epoch: 29855

The dashed part of the orbit path shows where the satellite is in the earth's shadow,  

DLR